This is the latest recevied weather packets stored in our database for station/object SQ9PDE-13. If no packets are shown the sender has not sent any weather packets the latest 10 day(s).
| Time | Temp. | Humidity | Pressure | Rain* | Wind** | Luminosity | Snow |
|---|---|---|---|---|---|---|---|
| 1777781657 | 10.56° C | 68% | 1020.1 hPa | - | - | - | - |
| 1777781356 | 10° C | 69% | 1020.2 hPa | - | - | - | - |
| 1777781056 | 9.44° C | 72% | 1020 hPa | - | - | - | - |
| 1777780755 | 8.89° C | 66% | 1019.7 hPa | - | - | - | - |
| 1777780455 | 8.89° C | 66% | 1019.7 hPa | - | - | - | - |
| 1777780154 | 8.89° C | 67% | 1019.8 hPa | - | - | - | - |
| 1777779854 | 8.89° C | 67% | 1019.8 hPa | - | - | - | - |
| 1777779553 | 8.89° C | 66% | 1019.7 hPa | - | - | - | - |
| 1777779253 | 8.89° C | 66% | 1019.7 hPa | - | - | - | - |
| 1777778952 | 8.33° C | 70% | 1019.8 hPa | - | - | - | - |
| 1777778651 | 8.33° C | 68% | 1019.9 hPa | - | - | - | - |
| 1777778351 | 8.33° C | 67% | 1019.8 hPa | - | - | - | - |
| 1777778051 | 8.33° C | 66% | 1019.6 hPa | - | - | - | - |
| 1777777750 | 8.33° C | 66% | 1019.8 hPa | - | - | - | - |
| 1777777450 | 8.33° C | 65% | 1019.8 hPa | - | - | - | - |
| 1777777149 | 8.33° C | 66% | 1019.8 hPa | - | - | - | - |
| 1777776848 | 7.78° C | 67% | 1019.9 hPa | - | - | - | - |
| 1777776548 | 8.33° C | 67% | 1019.9 hPa | - | - | - | - |
| 1777776247 | 7.78° C | 67% | 1019.9 hPa | - | - | - | - |
| 1777775947 | 7.78° C | 68% | 1019.9 hPa | - | - | - | - |
| 1777775646 | 7.78° C | 67% | 1019.9 hPa | - | - | - | - |
| 1777775346 | 8.33° C | 65% | 1019.9 hPa | - | - | - | - |
| 1777775045 | 8.89° C | 62% | 1019.8 hPa | - | - | - | - |
| 1777774745 | 8.89° C | 63% | 1019.8 hPa | - | - | - | - |
| 1777774444 | 9.44° C | 60% | 1019.7 hPa | - | - | - | - |
* Rain since midnight (hover to see other rain measurements)
** Current wind speed in m/s (hover to see current wind gust speed)